KF0AIT Weather Reports


time (UTC)temp
C
wind
direction
speed
KPH
gust
KPH
rain 1hr
cm
rain 24hr
cm
rain mn
cm
humidity
%
barometer
mb
20260905043603 28 0 0.0 0.0 0.00 0.00 0.00 52 1009.2
20260905042703 28 0 0.0 0.0 0.00 0.00 0.00 52 1009.2
20260905041824 28 0 0.0 0.0 0.00 0.00 0.00 52 1009.2
20260905040903 28 0 0.0 0.0 0.00 0.00 0.00 52 1009.2
20260905040003 28 0 0.0 0.0 0.00 0.00 0.00 52 1009.2
20260905035403 28 0 0.0 0.0 0.00 0.00 0.00 52 1009.2
20260905034524 28 0 0.0 0.0 0.00 0.00 0.00 52 1009.2
20260905033603 28 0 0.0 0.0 0.00 0.00 0.00 52 1009.2
20260905032703 28 0 0.0 0.0 0.00 0.00 0.00 52 1009.2
20260905031824 28 0 0.0 0.0 0.00 0.00 0.00 52 1009.2
20260905030924 28 0 0.0 0.0 0.00 0.00 0.00 52 1009.2
20260905030003 28 90 0.0 3.2 0.00 0.00 0.00 52 1009.2
20260905025403 28 90 3.2 3.2 0.00 0.00 0.00 52 1009.2
20260905024503 28 0 0.0 0.0 0.00 0.00 0.00 52 1009.2
20260905023603 28 0 0.0 0.0 0.00 0.00 0.00 52 1009.2
20260905022703 28 90 0.0 4.8 0.00 0.00 0.00 52 1009.2
20260905021803 28 0 0.0 0.0 0.00 0.00 0.00 52 1009.2
20260905020924 28 0 0.0 0.0 0.00 0.00 0.00 52 1009.2
20260905020024 28 67 0.0 1.6 0.00 0.00 0.00 52 1008.1
20260905015424 28 67 0.0 1.6 0.00 0.00 0.00 52 1008.1
20260905014503 28 67 0.0 1.6 0.00 0.00 0.00 52 1008.1
20260905013624 28 0 0.0 0.0 0.00 0.00 0.00 52 1008.1
20260905012724 28 0 0.0 0.0 0.00 0.00 0.00 52 1008.1
20260905011824 28 0 0.0 0.0 0.00 0.00 0.00 52 1008.1
20260905010903 28 0 0.0 0.0 0.00 0.00 0.00 52 1008.1
20260905010004 28 67 0.0 1.6 0.00 0.00 0.00 52 1008.1
20260905005424 28 67 0.0 1.6 0.00 0.00 0.00 52 1008.1
20260905004503 28 0 0.0 0.0 0.00 0.00 0.00 52 1008.1
20260905003603 28 0 0.0 0.0 0.00 0.00 0.00 52 1008.1
20260905002703 28 67 0.0 1.6 0.00 0.00 0.00 52 1008.1
20260905001803 28 67 1.6 1.6 0.00 0.00 0.00 52 1008.1
20260905000903 28 67 1.6 1.6 0.00 0.00 0.00 52 1008.1
20260905000003 28 0 0.0 0.0 0.00 0.00 0.00 52 1008.1
20260904235403 28 0 0.0 0.0 0.00 0.00 0.00 52 1008.1
20260904234503 28 0 0.0 0.0 0.00 0.00 0.00 52 1008.1
20260904233624 28 0 0.0 0.0 0.00 0.00 0.00 52 1008.1
20260904232703 28 67 0.0 1.6 0.00 0.00 0.00 52 1008.1
20260904231803 28 0 0.0 0.0 0.00 0.00 0.00 52 1008.1
20260904230903 28 0 0.0 0.0 0.00 0.00 0.00 52 1008.1
20260904230003 28 73 0.0 3.2 0.00 0.00 0.00 52 1008.1
20260904225403 28 73 3.2 3.2 0.00 0.00 0.00 52 1008.1
20260904224503 28 67 0.0 3.2 0.00 0.00 0.00 52 1008.1
20260904223603 28 45 0.0 1.6 0.00 0.00 0.00 52 1008.1
20260904222703 28 90 0.0 3.2 0.00 0.00 0.00 52 1008.1
20260904221803 28 45 0.0 1.6 0.00 0.00 0.00 52 1008.1
20260904220903 28 0 0.0 0.0 0.00 0.00 0.00 52 1008.1
20260904220003 28 337 0.0 3.2 0.00 0.00 0.00 52 1008.1
20260904215403 28 337 0.0 1.6 0.00 0.00 0.00 52 1008.1
20260904214503 28 337 0.0 1.6 0.00 0.00 0.00 52 1008.1
20260904213603 28 0 0.0 0.0 0.00 0.00 0.00 52 1008.1
20260904212703 28 0 0.0 0.0 0.00 0.00 0.00 52 1008.1
20260904211803 28 0 0.0 0.0 0.00 0.00 0.00 52 1008.1
20260904210924 28 0 0.0 0.0 0.00 0.00 0.00 52 1008.1
20260904210003 28 337 0.0 1.6 0.00 0.00 0.00 52 1008.1
20260904205403 28 337 0.0 1.6 0.00 0.00 0.00 52 1008.1
20260904204503 28 0 0.0 0.0 0.00 0.00 0.00 52 1008.1
20260904203603 28 0 0.0 0.0 0.00 0.00 0.00 52 1008.1
20260904202703 28 337 0.0 3.2 0.00 0.00 0.00 52 1008.1
20260904201803 28 4 3.2 3.2 0.00 0.00 0.00 52 1008.1
20260904200903 28 67 0.0 1.6 0.00 0.00 0.00 52 1008.1
20260904200003 28 67 0.0 4.8 0.00 0.00 0.00 52 1008.1
20260904195403 28 0 0.0 0.0 0.00 0.00 0.00 52 1008.1
20260904194503 28 67 0.0 1.6 0.00 0.00 0.00 52 1008.1
20260904193603 28 0 0.0 0.0 0.00 0.00 0.00 52 1008.1
20260904192724 28 67 0.0 6.4 0.00 0.00 0.00 52 1009.2
20260904191824 28 0 0.0 0.0 0.00 0.00 0.00 52 1009.2
20260904190903 28 22 0.0 1.6 0.00 0.00 0.00 52 1009.2
20260904190024 28 45 0.0 6.4 0.00 0.00 0.00 52 1009.2
20260904185403 28 53 0.0 6.4 0.00 0.00 0.00 52 1009.2
20260904184503 28 67 0.0 1.6 0.00 0.00 0.00 52 1009.2
20260904183603 28 58 1.6 1.6 0.00 0.00 0.00 52 1009.2
20260904182703 28 0 0.0 0.0 0.00 0.00 0.00 52 1008.1
20260904181803 28 0 0.0 0.0 0.00 0.00 0.00 52 1008.1
20260904180924 28 0 0.0 0.0 0.00 0.00 0.00 52 1008.1
20260904180024 28 0 0.0 0.0 0.00 0.00 0.00 52 1008.1
20260904175403 28 0 0.0 0.0 0.00 0.00 0.00 52 1008.1
20260904174503 28 22 0.0 1.6 0.00 0.00 0.00 52 1008.1
20260904173603 28 22 0.0 1.6 0.00 0.00 0.00 52 1008.1
20260904172724 28 22 1.6 1.6 0.00 0.00 0.00 55 1008.1
20260904171803 28 0 0.0 0.0 0.00 0.00 0.00 55 1008.1
20260904170903 27 0 0.0 0.0 0.00 0.00 0.00 58 1008.1
20260904170003 27 0 0.0 0.0 0.00 0.00 0.00 58 1008.1
20260904165403 27 360 0.0 1.6 0.00 0.00 0.00 58 1008.1
20260904164503 26 360 0.0 4.8 0.00 0.00 0.00 62 1008.1
20260904163603 26 0 0.0 0.0 0.00 0.00 0.00 64 1008.1
20260904162724 26 0 0.0 0.0 0.00 0.00 0.00 65 1008.1
20260904161803 26 0 0.0 0.0 0.00 0.00 0.00 68 1008.1
20260904160903 25 0 0.0 0.0 0.00 0.00 0.00 70 1008.1
20260904160003 25 67 0.0 1.6 0.00 0.00 0.00 70 1008.1
20260904155403 25 67 0.0 1.6 0.00 0.00 0.00 72 1008.1
20260904154504 25 0 0.0 0.0 0.00 0.00 0.00 76 1008.1
20260904153603 24 45 0.0 1.6 0.00 0.00 0.00 80 1008.1
20260904152703 24 0 0.0 0.0 0.00 0.00 0.00 82 1008.1
20260904151803 23 0 0.0 0.0 0.00 0.00 0.00 83 1008.1
20260904150903 23 0 0.0 0.0 0.00 0.00 0.00 83 1008.1
20260904150003 23 45 0.0 1.6 0.00 0.00 0.00 84 1008.1
20260904145424 23 0 0.0 0.0 0.00 0.00 0.00 84 1008.1
20260904144503 23 0 0.0 0.0 0.00 0.00 0.00 84 1008.1
20260904143603 22 67 0.0 1.6 0.00 0.00 0.00 85 1008.1
20260904142703 22 67 0.0 1.6 0.00 0.00 0.00 85 1007.1
20260904141803 22 0 0.0 0.0 0.00 0.00 0.00 84 1007.1
20260904140903 22 0 0.0 0.0 0.00 0.00 0.00 85 1008.1
20260904140024 21 0 0.0 0.0 0.00 0.00 0.00 85 1007.1
20260904135403 21 0 0.0 0.0 0.00 0.00 0.00 85 1007.1
20260904134503 21 0 0.0 0.0 0.00 0.00 0.00 86 1008.1
20260904133603 21 0 0.0 0.0 0.00 0.00 0.00 86 1008.1
20260904132703 21 0 0.0 0.0 0.00 0.00 0.00 86 1008.1
20260904131803 21 0 0.0 0.0 0.00 0.00 0.00 86 1008.1
20260904130903 21 0 0.0 0.0 0.00 0.00 0.00 86 1008.1
20260904130003 21 0 0.0 0.0 0.00 0.00 0.00 86 1008.1
20260904125403 21 0 0.0 0.0 0.00 0.00 0.00 86 1008.1
20260904124504 21 0 0.0 0.0 0.00 0.00 0.00 88 1007.1
20260904123625 21 0 0.0 0.0 0.00 0.00 0.00 88 1007.1
20260904122703 21 0 0.0 0.0 0.00 0.00 0.00 88 1007.1
20260904121803 21 0 0.0 0.0 0.00 0.00 0.00 88 1007.1
20260904120924 21 0 0.0 0.0 0.00 0.00 0.00 88 1007.1
20260904120025 21 0 0.0 0.0 0.00 0.00 0.00 88 1007.1
20260904115403 21 0 0.0 0.0 0.00 0.00 0.00 88 1007.1
20260904114503 21 0 0.0 0.0 0.00 0.00 0.00 88 1007.1
20260904113603 21 0 0.0 0.0 0.00 0.00 0.00 88 1007.1
20260904112703 21 0 0.0 0.0 0.00 0.00 0.00 89 1006.0
20260904111803 21 0 0.0 0.0 0.00 0.00 0.00 88 1006.0
20260904110924 21 0 0.0 0.0 0.00 0.00 0.00 87 1006.0
20260904110003 21 0 0.0 0.0 0.00 0.00 0.00 86 1006.0
20260904105403 21 0 0.0 0.0 0.00 0.00 0.00 86 1006.0
20260904104503 21 0 0.0 0.0 0.00 0.00 0.00 85 1006.0
20260904103603 21 0 0.0 0.0 0.00 0.00 0.00 85 1006.0
20260904102724 21 0 0.0 0.0 0.00 0.00 0.00 85 1006.0
20260904101803 21 0 0.0 0.0 0.00 0.00 0.00 85 1006.0
20260904100903 21 0 0.0 0.0 0.00 0.00 0.00 84 1006.0
20260904100003 21 0 0.0 0.0 0.00 0.00 0.00 83 1005.0
20260904095403 21 0 0.0 0.0 0.00 0.00 0.00 83 1005.0
20260904094503 21 0 0.0 0.0 0.00 0.00 0.00 83 1005.0
20260904093603 21 0 0.0 0.0 0.00 0.00 0.00 82 1005.0
20260904092703 21 157 0.0 1.6 0.00 0.00 0.00 82 1005.0
20260904091803 21 0 0.0 0.0 0.00 0.00 0.00 82 1005.0
20260904090903 21 0 0.0 0.0 0.00 0.00 0.00 82 1005.0
20260904090003 21 0 0.0 0.0 0.00 0.00 0.00 81 1005.0
20260904085403 22 0 0.0 0.0 0.00 0.00 0.00 81 1005.0
20260904084503 22 0 0.0 0.0 0.00 0.00 0.00 81 1005.0
20260904083603 22 0 0.0 0.0 0.00 0.00 0.00 81 1005.0
20260904082703 22 0 0.0 0.0 0.00 0.00 0.00 81 1005.0
20260904081803 22 0 0.0 0.0 0.00 0.00 0.00 80 1005.0
20260904080903 22 0 0.0 0.0 0.00 0.00 0.00 80 1005.0
20260904080003 22 0 0.0 0.0 0.00 0.00 0.00 80 1005.0
20260904075424 22 0 0.0 0.0 0.00 0.00 0.00 79 1005.0
20260904074503 22 0 0.0 0.0 0.00 0.00 0.00 79 1005.0
20260904073603 22 0 0.0 0.0 0.00 0.00 0.00 79 1005.0
20260904072703 22 0 0.0 0.0 0.00 0.00 0.00 79 1005.0
20260904071803 22 0 0.0 0.0 0.00 0.00 0.00 78 1005.0
20260904070903 22 0 0.0 0.0 0.00 0.00 0.00 78 1005.0
20260904070003 22 0 0.0 0.0 0.00 0.00 0.00 78 1005.0
20260904065424 22 0 0.0 0.0 0.00 0.00 0.00 78 1005.0
20260904064503 23 0 0.0 0.0 0.00 0.00 0.00 77 1005.0
20260904063624 23 0 0.0 0.0 0.00 0.00 0.00 76 1005.0
20260904062703 23 0 0.0 0.0 0.00 0.00 0.00 76 1005.0
20260904061803 23 0 0.0 0.0 0.00 0.00 0.00 75 1005.0
20260904060924 23 0 0.0 0.0 0.00 0.00 0.00 75 1005.0
20260904060003 23 0 0.0 0.0 0.00 0.00 0.00 75 1005.0
20260904055403 23 0 0.0 0.0 0.00 0.00 0.00 74 1005.0
20260904054503 23 0 0.0 0.0 0.00 0.00 0.00 74 1005.0
20260904053603 23 0 0.0 0.0 0.00 0.00 0.00 73 1005.0
20260904052703 23 0 0.0 0.0 0.00 0.00 0.00 73 1005.0
20260904051803 23 0 0.0 0.0 0.00 0.00 0.00 72 1005.0
20260904050924 23 0 0.0 0.0 0.00 0.00 0.00 72 1003.9
20260904050003 24 0 0.0 0.0 0.00 0.00 0.00 71 1003.9
20260904045424 24 0 0.0 0.0 0.00 0.00 0.00 71 1003.9
20260904044503 24 0 0.0 0.0 0.00 0.00 0.00 71 1003.9